Location: Clarkson Observatory
(44.6781°N, 74.9517°W)
Time: 19:37:00
(UTC-05:00)

Amateur Radio Satellites - All Passes

Search period start: 21 January 2018 19:06
Search period end: 22 January 2018 19:06
Location: Clarkson Observatory, 44.6781°N, 74.9517°W

Satellite Date Start Highest point End Downlink Frequencies (MHz)
Time Altitude Azimuth
HO-68 21 Jan 19:16:49 19:22:56 30° 266° (W) 19:29:05 435.675
CUBEBUG 2 21 Jan 19:26:40 19:30:02 21° 268° (W) 19:33:30 437.445
UWE-3 21 Jan 19:29:22 19:33:24 33° 265° (W) 19:37:32 435.000/436.395/437.385
NO-84 21 Jan 19:32:20 19:33:36 12° 350° (N) 19:34:51 435.350 FM
BEESAT 2 21 Jan 19:40:47 19:44:19 30° 244° (WSW) 19:47:48 435.950
ZACube-1 21 Jan 19:50:57 19:55:05 37° 263° (W) 19:59:20 437.345
nSIGHT-1 21 Jan 19:57:07 19:59:58 32° 140° (SE) 20:02:52 .
AO-73 21 Jan 19:57:12 20:01:19 36° 264° (W) 20:05:32 145.935
AO-85 21 Jan 19:58:45 20:03:39 64° 53° (NE) 20:08:50 145.980
PCSat 21 Jan 20:02:39 20:06:28 20° 254° (WSW) 20:10:15 145.827
AAUSAT CUBESAT 2 21 Jan 20:06:56 20:09:40 17° 268° (W) 20:12:25 437.432
ISS 21 Jan 20:13:47 20:16:45 32° 140° (SE) 20:19:43 437.550
STRAND 1 21 Jan 20:22:11 20:27:01 42° 291° (WNW) 20:31:51 437.568
Oscar 11 21 Jan 20:30:09 20:33:46 26° 266° (W) 20:37:25 .
UNISAT 6 21 Jan 20:31:28 20:33:49 14° 89° (E) 20:36:08 437.425
FO-29 21 Jan 20:33:21 20:38:34 79° 287° (WNW) 20:43:49 435.910
DELFI C3 21 Jan 20:33:28 20:37:21 71° 75° (ENE) 20:41:16 145.870
Max Valier Satellite 21 Jan 21:01:23 21:05:07 81° 258° (WSW) 21:08:53 145.860
NO-84 21 Jan 21:10:20 21:11:46 13° 12° (NNE) 21:13:12 435.350 FM
ESTCUBE 1 21 Jan 21:17:29 21:20:02 15° 61° (ENE) 21:22:36 437.505/2401.250
EO-88 21 Jan 21:18:00 21:21:39 77° 259° (W) 21:25:19 145.990 - 145.960
nSIGHT-1 21 Jan 21:33:04 21:36:06 41° 339° (NNW) 21:39:07 .
AO-85 21 Jan 21:40:03 21:43:43 20° 248° (WSW) 21:47:30 145.980
ISS 21 Jan 21:50:01 21:53:10 43° 338° (NNW) 21:56:19 437.550
TIGRISAT 21 Jan 21:50:41 21:55:24 76° 101° (ESE) 22:00:06 435.000
YUBILEINY 21 Jan 22:00:52 22:08:44 38° 85° (E) 22:16:35 435.215
PRISM 21 Jan 22:01:01 22:04:12 22° 94° (E) 22:07:22 437.425
UNISAT 6 21 Jan 22:06:17 22:10:59 71° 286° (WNW) 22:15:39 437.425
AIST 2D 21 Jan 22:07:49 22:08:18 10° 90° (E) 22:08:47 435.315
FO-29 21 Jan 22:21:17 22:22:48 11° 306° (NW) 22:24:20 435.910
LO-87 21 Jan 22:34:11 22:37:44 73° 258° (WSW) 22:41:20 145.935 - 145.965
SPROUT 21 Jan 22:37:21 22:40:38 22° 65° (ENE) 22:43:55 437.525
NO-84 21 Jan 22:46:44 22:49:29 45° 33° (NNE) 22:52:17 435.350 FM
QB50P2 21 Jan 22:48:18 22:50:13 13° 89° (E) 22:52:06 145.880/145.840
VELOX 1 21 Jan 22:48:34 22:51:28 18° 63° (ENE) 22:54:22 145.980
ESTCUBE 1 21 Jan 22:51:48 22:56:18 66° 258° (WSW) 23:00:49 437.505/2401.250
O/OREOS (USA 219) 21 Jan 23:05:40 23:08:09 15° 99° (E) 23:10:38 437.305
nSIGHT-1 21 Jan 23:10:13 23:12:48 22° 358° (N) 23:15:23 .
DUCHIFAT 1 21 Jan 23:15:33 23:18:20 17° 92° (E) 23:21:07 145.980
EO-79 21 Jan 23:17:35 23:21:02 23° 94° (E) 23:24:28 145.935-145.965
ISS 21 Jan 23:27:29 23:30:12 23° 358° (N) 23:32:55 437.550
TIGRISAT 21 Jan 23:28:58 23:31:28 14° 300° (WNW) 23:33:58 435.000
PRISM 21 Jan 23:35:51 23:39:32 33° 291° (WNW) 23:43:12 437.425
AIST 2D 21 Jan 23:38:23 23:41:45 50° 287° (WNW) 23:45:07 435.315
POLYITAN 1 21 Jan 23:52:19 23:56:33 54° 100° (E) 00:00:45 437.675
YUBILEINY 21 Jan 23:56:45 00:05:16 52° 286° (WNW) 00:13:49 435.215
NANOSAT C BR1 22 Jan 00:06:54 00:11:10 69° 101° (E) 00:15:25 145.865
SPROUT 22 Jan 00:12:21 00:16:17 37° 263° (W) 00:20:16 437.525
BUGSAT 1 22 Jan 00:12:49 00:15:32 16° 92° (E) 00:18:14 437.445
Gurwin Techsat 1B 22 Jan 00:20:18 00:20:41 10° 86° (E) 00:21:03 435.225
QB50P2 22 Jan 00:22:09 00:26:25 64° 286° (WNW) 00:30:38 145.880/145.840
UKube-1 22 Jan 00:22:55 00:26:06 21° 64° (ENE) 00:29:20 .
VELOX 1 22 Jan 00:23:15 00:27:31 52° 260° (W) 00:31:49 145.980
Oscar 19 22 Jan 00:23:39 00:26:35 15° 89° (E) 00:29:31 437.125/150
NO-84 22 Jan 00:24:28 00:26:24 16° 229° (SW) 00:28:23 435.350 FM
DX 1 22 Jan 00:36:02 00:40:08 44° 70° (ENE) 00:44:15 434.975-435.025
O/OREOS (USA 219) 22 Jan 00:42:35 00:47:02 60° 296° (WNW) 00:51:30 437.305
nSIGHT-1 22 Jan 00:46:37 00:49:34 34° 18° (NNE) 00:52:31 .
DUCHIFAT 1 22 Jan 00:50:08 00:54:14 47° 289° (WNW) 00:58:18 145.980
MOZHAYETS 4 22 Jan 00:51:50 00:54:09 14° 60° (ENE) 00:56:29
EO-79 22 Jan 00:52:58 00:56:50 34° 291° (WNW) 01:00:42 145.935-145.965
ISS 22 Jan 01:04:14 01:07:17 35° 18° (NNE) 01:10:20 437.550
BEESAT 22 Jan 01:10:16 01:12:33 13° 58° (ENE) 01:14:51 436.000
50 SAT 22 Jan 01:14:53 01:17:56 67° 258° (WSW) 01:21:01 437.505
AO-91 22 Jan 01:28:50 01:33:18 74° 102° (ESE) 01:38:16 145.960
POLYITAN 1 22 Jan 01:29:13 01:31:53 16° 298° (WNW) 01:34:34 437.675
NANOSAT C BR1 22 Jan 01:44:18 01:46:19 13° 299° (WNW) 01:48:19 145.865
BUGSAT 1 22 Jan 01:47:02 01:51:08 48° 288° (WNW) 01:55:13 437.445
Gurwin Techsat 1B 22 Jan 01:56:07 02:01:28 79° 104° (ESE) 02:06:46 435.225
UKube-1 22 Jan 01:57:49 02:01:52 40° 261° (W) 02:05:56 .
Oscar 19 22 Jan 02:01:17 02:06:27 72° 287° (WNW) 02:11:34 437.125/150
YUBILEINY 22 Jan 02:02:22 02:04:39 11° 311° (NW) 02:06:56 435.215
ITUPSAT 1 22 Jan 02:06:21 02:10:48 41° 69° (ENE) 02:15:19 437.325
DX 1 22 Jan 02:13:30 02:16:31 18° 267° (W) 02:19:33 434.975-435.025
nSIGHT-1 22 Jan 02:22:45 02:25:50 47° 216° (SW) 02:28:54 .
AO-7 22 Jan 02:23:05 02:29:44 25° 93° (E) 02:36:19 .
MOZHAYETS 4 22 Jan 02:26:03 02:30:40 77° 257° (WSW) 02:35:20
CUBESAT XI-V 22 Jan 02:32:41 02:36:54 34° 68° (ENE) 02:41:06 437.345
ISS 22 Jan 02:40:41 02:43:52 49° 216° (SW) 02:47:02 437.550
BEESAT 22 Jan 02:44:52 02:49:38 84° 257° (WSW) 02:54:27 436.000
AO-91 22 Jan 03:06:57 03:09:20 14° 297° (WNW) 03:11:49 145.960
ITAMSAT 1 22 Jan 03:10:19 03:14:48 28° 95° (E) 03:19:15 435.822/435.867
Gurwin Techsat 1B 22 Jan 03:37:31 03:40:45 17° 302° (WNW) 03:43:59 435.225
Oscar 19 22 Jan 03:43:21 03:44:50 11° 306° (NW) 03:46:18 437.125/150
ITUPSAT 1 22 Jan 03:44:57 03:48:46 24° 266° (W) 03:52:37 437.325
KKS-1 22 Jan 03:46:54 03:50:45 30° 67° (ENE) 03:54:38 437.445
STARS 22 Jan 04:00:20 04:03:15 18° 62° (ENE) 04:06:10 437.465
CUBESAT XI-V 22 Jan 04:10:15 04:14:16 28° 265° (W) 04:18:17 437.345
AO-7 22 Jan 04:14:53 04:23:16 76° 292° (WNW) 04:31:34 .
FALCONSAT 3 22 Jan 04:14:54 04:17:15 16° 169° (SSE) 04:19:36 435.103
DOVE 4 22 Jan 04:21:57 04:26:01 37° 98° (E) 04:30:17 437.250
ITAMSAT 1 22 Jan 04:49:31 04:54:20 40° 293° (WNW) 04:59:09 435.822/435.867
CUTE-I 22 Jan 04:54:40 04:56:15 11° 87° (E) 04:57:49 437.470
XW-2D 22 Jan 04:59:01 05:00:26 12° 90° (E) 05:01:50 145.860 - 145.880
SO-50 22 Jan 05:09:25 05:13:51 70° 122° (ESE) 05:18:22 436.795
M-CUBED/EXP-1 PRIME 22 Jan 05:14:47 05:18:09 81° 108° (ESE) 05:21:24 437.505
XW-2B 22 Jan 05:15:40 05:18:16 18° 93° (E) 05:20:50 145.730 - 145.750
KKS-1 22 Jan 05:23:29 05:27:17 28° 264° (W) 05:31:06 437.445
STARS 22 Jan 05:34:58 05:39:12 51° 260° (W) 05:43:28 437.465
LilacSat-2 22 Jan 05:44:49 05:48:27 43° 98° (E) 05:52:02 437.200
XW-2C 22 Jan 05:45:21 05:48:55 40° 98° (E) 05:52:26 145.795 - 145.815
FALCONSAT 3 22 Jan 05:52:59 05:55:38 19° 184° (S) 05:58:17 435.103
DOVE 4 22 Jan 06:00:07 06:03:33 23° 293° (WNW) 06:07:06 437.250
STRAND 1 22 Jan 06:00:49 06:05:38 44° 69° (ENE) 06:10:27 437.568
AO-7 22 Jan 06:09:02 06:14:44 21° 314° (NW) 06:20:25 .
KAITUO 1B 22 Jan 06:16:08 06:19:49 67° 100° (E) 06:23:29 145.475/437.950
XW-2F 22 Jan 06:20:15 06:24:00 81° 284° (WNW) 06:27:43 145.980 - 146.000
NUDT-PHONESAT 22 Jan 06:24:35 06:28:17 81° 102° (ESE) 06:31:56 437.300
XW-2D 22 Jan 06:31:15 06:34:54 52° 287° (WNW) 06:38:33 145.860 - 145.880
CUTE-I 22 Jan 06:31:42 06:37:03 85° 103° (ESE) 06:42:24 437.470
SEEDS 22 Jan 06:32:59 06:36:23 24° 94° (E) 06:39:46 437.485
HO-68 22 Jan 06:40:59 06:47:56 51° 100° (E) 06:54:50 435.675
FO-29 22 Jan 06:46:16 06:52:47 55° 71° (ENE) 06:58:34 435.910
CUTE 1.7 + AOD 2 22 Jan 06:47:45 06:51:55 58° 100° (E) 06:56:03 437.475
XW-2B 22 Jan 06:49:06 06:52:32 34° 289° (WNW) 06:55:55 145.730 - 145.750
SO-50 22 Jan 06:51:24 06:54:47 20° 323° (NW) 06:58:12 436.795
RS-15 22 Jan 07:12:49 07:24:19 49° 110° (ESE) 07:35:40 29.354- 29.394
CUBEBUG 2 22 Jan 07:13:53 07:18:41 74° 102° (ESE) 07:23:25 437.445
UWE-3 22 Jan 07:16:27 07:20:58 44° 98° (E) 07:25:22 435.000/436.395/437.385
LilacSat-2 22 Jan 07:20:06 07:22:22 15° 296° (WNW) 07:24:37 437.200
XW-2C 22 Jan 07:20:24 07:22:46 16° 295° (WNW) 07:25:07 145.795 - 145.815
UNISAT 6 22 Jan 07:32:08 07:34:41 15° 60° (ENE) 07:37:15 437.425
FALCONSAT 3 22 Jan 07:32:49 07:33:57 11° 199° (SSW) 07:35:06 435.103
ZACube-1 22 Jan 07:37:04 07:41:20 38° 97° (E) 07:45:31 437.345
STRAND 1 22 Jan 07:40:51 07:44:59 25° 267° (W) 07:49:08 437.568
AO-73 22 Jan 07:42:57 07:47:12 38° 97° (E) 07:51:21 145.935
AAUSAT CUBESAT 2 22 Jan 07:45:11 07:49:16 64° 101° (E) 07:53:20 437.432
KAITUO 1B 22 Jan 07:52:45 07:53:14 10° 298° (WNW) 07:53:42 145.475/437.950
XW-2A 22 Jan 07:56:27 07:59:50 76° 101° (ESE) 08:03:08 145.665 - 145.685
SEEDS 22 Jan 08:08:24 08:12:05 31° 291° (WNW) 08:15:43 437.485
YUBILEINY 22 Jan 08:08:41 08:14:55 21° 59° (ENE) 08:21:05 435.215
CUTE-I 22 Jan 08:13:23 08:16:24 15° 303° (WNW) 08:19:24 437.470
Oscar 11 22 Jan 08:14:32 08:18:46 50° 99° (E) 08:22:57 .
CUTE 1.7 + AOD 2 22 Jan 08:24:57 08:27:16 15° 298° (WNW) 08:29:35 437.475
HO-68 22 Jan 08:29:05 08:35:26 36° 299° (WNW) 08:41:47 435.675
FO-29 22 Jan 08:32:34 08:38:04 26° 265° (W) 08:43:07 435.910
BEESAT 3 22 Jan 08:41:11 08:44:37 28° 115° (ESE) 08:48:05 437.485
TIGRISAT 22 Jan 08:50:37 08:55:03 78° 74° (ENE) 08:59:38 435.000
PRISM 22 Jan 08:52:00 08:55:01 20° 65° (ENE) 08:58:01 437.425
CUBEBUG 2 22 Jan 08:52:01 08:54:40 15° 299° (WNW) 08:57:20 437.445
UWE-3 22 Jan 08:53:31 08:57:06 22° 296° (WNW) 09:00:38 435.000/436.395/437.385
PCSat 22 Jan 09:01:37 09:06:39 41° 113° (ESE) 09:11:43 145.827
UNISAT 6 22 Jan 09:06:24 09:10:48 66° 259° (WSW) 09:15:22 437.425
O/OREOS (USA 219) 22 Jan 09:11:37 09:15:50 39° 60° (ENE) 09:20:02 437.305
ZACube-1 22 Jan 09:13:44 09:17:23 24° 294° (WNW) 09:21:00 437.345
AO-73 22 Jan 09:19:35 09:23:12 24° 295° (WNW) 09:26:45 145.935
AAUSAT CUBESAT 2 22 Jan 09:22:19 09:24:12 13° 298° (WNW) 09:26:04 437.432
RS-15 22 Jan 09:24:25 09:36:37 62° 314° (NW) 09:48:35 29.354- 29.394
BEESAT 2 22 Jan 09:32:53 09:36:16 27° 115° (ESE) 09:39:42 435.950
DELFI C3 22 Jan 09:42:42 09:46:39 89° 283° (WNW) 09:50:35 145.870
QB50P2 22 Jan 09:42:52 09:44:51 13° 61° (ENE) 09:46:50 145.880/145.840
Oscar 11 22 Jan 09:51:40 09:54:30 17° 297° (WNW) 09:57:20 .
Max Valier Satellite 22 Jan 10:02:57 10:06:39 75° 283° (WNW) 10:10:18 145.860
YUBILEINY 22 Jan 10:04:17 10:13:05 88° 82° (E) 10:21:47 435.215
DUCHIFAT 1 22 Jan 10:09:10 10:11:50 17° 63° (ENE) 10:14:30 145.980
EO-79 22 Jan 10:11:39 10:14:56 22° 65° (ENE) 10:18:15 145.935-145.965
AIST 2D 22 Jan 10:13:24 10:16:54 68° 76° (ENE) 10:20:24 435.315
EO-88 22 Jan 10:18:00 10:21:38 76° 283° (WNW) 10:25:14 145.990 - 145.960
BEESAT 3 22 Jan 10:18:29 10:22:04 31° 314° (NW) 10:25:40 437.485
AO-85 22 Jan 10:19:04 10:19:29 10° 106° (ESE) 10:19:52 145.980
PRISM 22 Jan 10:26:17 10:30:02 36° 262° (W) 10:33:50 437.425
TIGRISAT 22 Jan 10:31:05 10:32:20 11° 273° (W) 10:33:37 435.000
ESTCUBE 1 22 Jan 10:42:55 10:46:27 22° 93° (E) 10:49:57 437.505/2401.250
PCSat 22 Jan 10:45:11 10:50:07 35° 312° (NW) 10:55:05 145.827
POLYITAN 1 22 Jan 10:46:05 10:50:11 50° 72° (ENE) 10:54:19 437.675
O/OREOS (USA 219) 22 Jan 10:51:31 10:55:01 23° 258° (WSW) 10:58:30 437.305
NANOSAT C BR1 22 Jan 11:00:06 11:04:16 62° 74° (ENE) 11:08:28 145.865
BUGSAT 1 22 Jan 11:04:36 11:06:57 15° 62° (ENE) 11:09:20 437.445
BEESAT 2 22 Jan 11:10:11 11:13:53 34° 313° (NW) 11:17:36 435.950
QB50P2 22 Jan 11:15:50 11:20:03 70° 258° (WSW) 11:24:20 145.880/145.840
LO-87 22 Jan 11:32:07 11:35:46 76° 285° (WNW) 11:39:22 145.935 - 145.965
AO-7 22 Jan 11:38:10 11:40:49 12° 36° (NE) 11:43:27 .
Gurwin Techsat 1B 22 Jan 11:40:51 11:44:51 22° 61° (ENE) 11:48:52 435.225
Oscar 19 22 Jan 11:41:34 11:45:56 28° 64° (ENE) 11:50:19 437.125/150
RS-15 22 Jan 11:41:47 11:52:12 31° 345° (NNW) 12:02:20 29.354- 29.394
DUCHIFAT 1 22 Jan 11:42:59 11:47:04 51° 260° (W) 11:51:13 145.980
EO-79 22 Jan 11:46:35 11:50:29 36° 263° (W) 11:54:25 145.935-145.965
AO-85 22 Jan 11:55:05 11:59:04 81° 306° (NW) 12:03:23 145.980
SPROUT 22 Jan 11:55:45 11:59:35 31° 96° (E) 12:03:24 437.525
SO-50 22 Jan 11:59:04 12:02:28 19° 36° (NE) 12:05:55 436.795
YUBILEINY 22 Jan 12:02:51 12:08:38 20° 283° (WNW) 12:14:27 435.215
VELOX 1 22 Jan 12:11:31 12:15:09 25° 95° (E) 12:18:46 145.980
ESTCUBE 1 22 Jan 12:19:12 12:23:22 38° 290° (WNW) 12:27:30 437.505/2401.250
POLYITAN 1 22 Jan 12:23:37 12:26:15 16° 269° (W) 12:28:53 437.675
AO-91 22 Jan 12:28:38 12:31:59 67° 75° (ENE) 12:35:31 145.960
BUGSAT 1 22 Jan 12:37:51 12:41:51 55° 259° (W) 12:45:56 437.445
NANOSAT C BR1 22 Jan 12:38:31 12:40:22 13° 271° (W) 12:42:15 145.865
Gurwin Techsat 1B 22 Jan 13:19:11 13:24:23 56° 260° (W) 13:29:38 435.225
Oscar 19 22 Jan 13:20:10 13:25:04 41° 262° (W) 13:30:00 437.125/150
AO-7 22 Jan 13:23:41 13:31:23 43° 59° (ENE) 13:39:08 .
SPROUT 22 Jan 13:31:46 13:35:22 26° 293° (WNW) 13:38:57 437.525
AO-85 22 Jan 13:37:53 13:40:16 15° 328° (NNW) 13:42:46 145.980
SO-50 22 Jan 13:38:46 13:43:30 81° 236° (SW) 13:48:16 436.795
UKube-1 22 Jan 13:42:51 13:46:32 27° 96° (E) 13:50:11 .
VELOX 1 22 Jan 13:47:40 13:51:38 34° 292° (WNW) 13:55:35 145.980
DX 1 22 Jan 13:57:58 14:02:18 65° 101° (ESE) 14:06:37 434.975-435.025
50 SAT 22 Jan 13:58:50 14:01:56 65° 102° (ESE) 14:05:01 437.505
RS-15 22 Jan 13:58:55 14:09:25 33° 20° (NNE) 14:19:26 29.354- 29.394
MOZHAYETS 4 22 Jan 14:19:50 14:23:25 22° 93° (E) 14:26:58
M-CUBED/EXP-1 PRIME 22 Jan 14:28:46 14:31:13 15° 59° (ENE) 14:33:35 437.505
ITAMSAT 1 22 Jan 14:29:49 14:34:49 52° 70° (ENE) 14:39:51 435.822/435.867
BEESAT 22 Jan 14:43:45 14:47:25 21° 93° (E) 14:51:04 436.000
AO-7 22 Jan 15:16:01 15:24:03 49° 259° (W) 15:32:07 .
UKube-1 22 Jan 15:18:45 15:22:31 30° 293° (WNW) 15:26:17 .
SO-50 22 Jan 15:22:17 15:23:12 10° 253° (WSW) 15:24:08 436.795
DOVE 4 22 Jan 15:29:18 15:33:20 44° 72° (ENE) 15:37:17 437.250
HO-68 22 Jan 15:31:37 15:32:06 10° 43° (NE) 15:32:34 435.675
DX 1 22 Jan 15:35:37 15:37:58 14° 299° (WNW) 15:40:20 434.975-435.025
NO-84 22 Jan 15:39:50 15:42:03 18° 131° (SE) 15:44:10 435.350 FM
ITUPSAT 1 22 Jan 15:42:10 15:47:00 77° 103° (ESE) 15:51:49 437.325
MOZHAYETS 4 22 Jan 15:56:23 16:00:44 42° 290° (WNW) 16:05:04
XW-2B 22 Jan 15:59:27 16:01:09 13° 63° (ENE) 16:02:51 145.730 - 145.750
M-CUBED/EXP-1 PRIME 22 Jan 16:01:00 16:05:15 59° 254° (WSW) 16:09:13 437.505
CUBESAT XI-V 22 Jan 16:03:56 16:08:33 63° 101° (ESE) 16:13:06 437.345
PCSat 22 Jan 16:05:29 16:07:52 13° 30° (NNE) 16:10:16 145.827
ITAMSAT 1 22 Jan 16:10:43 16:14:35 21° 268° (W) 16:18:28 435.822/435.867
RS-15 22 Jan 16:12:30 16:24:22 72° 50° (NE) 16:35:33 29.354- 29.394
CUTE-I 22 Jan 16:16:52 16:21:03 24° 62° (ENE) 16:25:15 437.470
BEESAT 22 Jan 16:20:49 16:25:24 45° 290° (WNW) 16:29:57 436.000
XW-2C 22 Jan 16:28:10 16:31:22 26° 68° (ENE) 16:34:34 145.795 - 145.815
LilacSat-2 22 Jan 16:28:13 16:31:32 28° 69° (ENE) 16:34:52 437.200
BEESAT 3 22 Jan 16:55:36 16:59:09 31° 46° (NE) 17:02:38 437.485
KAITUO 1B 22 Jan 16:57:14 17:00:44 38° 72° (ENE) 17:04:14 145.475/437.950
XW-2F 22 Jan 17:02:01 17:05:46 59° 74° (ENE) 17:09:30 145.980 - 146.000
NUDT-PHONESAT 22 Jan 17:04:38 17:08:11 44° 73° (ENE) 17:11:45 437.300
DOVE 4 22 Jan 17:08:31 17:11:16 17° 268° (W) 17:13:58 437.250
HO-68 22 Jan 17:11:21 17:18:03 45° 64° (ENE) 17:24:46 435.675
KKS-1 22 Jan 17:11:38 17:15:55 46° 99° (E) 17:20:13 437.445
XW-2D 22 Jan 17:13:18 17:17:08 89° 253° (WSW) 17:20:58 145.860 - 145.880
NO-84 22 Jan 17:16:01 17:19:00 47° 327° (NNW) 17:21:49 435.350 FM
ITUPSAT 1 22 Jan 17:21:34 17:24:12 15° 301° (WNW) 17:26:50 437.325
STARS 22 Jan 17:22:35 17:26:12 24° 95° (E) 17:29:49 437.465
SEEDS 22 Jan 17:26:19 17:29:33 22° 66° (ENE) 17:32:47 437.485
XW-2B 22 Jan 17:31:05 17:34:51 57° 260° (W) 17:38:38 145.730 - 145.750
CUTE 1.7 + AOD 2 22 Jan 17:41:35 17:45:44 50° 72° (ENE) 17:49:52 437.475
CUBESAT XI-V 22 Jan 17:42:38 17:45:24 16° 299° (WNW) 17:48:09 437.345
PCSat 22 Jan 17:47:20 17:52:37 50° 53° (NE) 17:57:52 145.827
BEESAT 2 22 Jan 17:48:10 17:51:46 31° 46° (NE) 17:55:20 435.950
CUTE-I 22 Jan 17:55:37 18:00:46 50° 260° (W) 18:05:57 437.470
XW-2C 22 Jan 18:02:18 18:05:29 24° 265° (W) 18:08:39 145.795 - 145.815
LilacSat-2 22 Jan 18:02:42 18:05:47 23° 266° (W) 18:08:54 437.200
STRAND 1 22 Jan 18:11:10 18:13:25 13° 88° (E) 18:15:40 437.568
CUBEBUG 2 22 Jan 18:13:12 18:17:36 72° 75° (ENE) 18:22:11 437.445
UWE-3 22 Jan 18:14:40 18:18:53 43° 71° (ENE) 18:23:14 435.000/436.395/437.385
RS-15 22 Jan 18:25:50 18:35:52 36° 254° (WSW) 18:45:30 29.354- 29.394
XW-2A 22 Jan 18:28:48 18:31:51 31° 71° (ENE) 18:34:55 145.665 - 145.685
KAITUO 1B 22 Jan 18:32:30 18:34:51 16° 268° (W) 18:37:13 145.475/437.950
BEESAT 3 22 Jan 18:33:15 18:36:35 27° 245° (WSW) 18:39:51 437.485
ZACube-1 22 Jan 18:34:04 18:38:10 36° 69° (ENE) 18:42:22 437.345
AAUSAT CUBESAT 2 22 Jan 18:36:26 18:40:26 51° 72° (ENE) 18:44:26 437.432
XW-2F 22 Jan 18:39:11 18:40:13 11° 271° (W) 18:41:14 145.980 - 146.000
AO-73 22 Jan 18:39:36 18:43:42 36° 69° (ENE) 18:47:53 145.935
NUDT-PHONESAT 22 Jan 18:40:15 18:42:14 14° 269° (W) 18:44:12 437.300
AO-85 22 Jan 18:43:50 18:47:54 25° 41° (NE) 18:52:08 145.980
KKS-1 22 Jan 18:48:56 18:52:10 20° 297° (WNW) 18:55:24 437.445
NO-84 22 Jan 18:55:09 18:56:42 13° 347° (NNW) 18:58:13 435.350 FM
STARS 22 Jan 18:58:34 19:02:35 35° 292° (WNW) 19:06:36 437.465
nSIGHT-1 22 Jan 19:01:14 19:03:20 17° 135° (SE) 19:05:27 .
